Flag for Australia Weather past 2 weeks in Hobart, Tasmania, Australia

Now
48 °F

Passing clouds.


Feels Like: 43 °F
Forecast: 42 / 56 °F
Wind: 13 mph from North

Location: Hobart Airport

Current Time: Jul 30, 2015 at 4:55:50 AM

Latest Report: Jul 30, 2015 at 4:00 AM


Visibility: N/A

Pressure: 29.98 "Hg

Humidity: 62%

Dew point: 36 °F

Location of HobartLocation

Historic Weather in Hobart — Graph

°F

Hobart temperature yesterday

Maximum temperature yesterday: 55 °F (at 11:30 AM)
Minimum temperature yesterday: 45 °F (at 2:30 AM)
Average temperature yesterday: 50 °F

Past Weeks' High & Low Weather Summary

 TemperatureHumidityPressure
High59 °F (Jul 22, 11:00 AM)93% (Jul 16, 12:30 AM)30.45 "Hg (Jul 16, 12:30 AM)
Low34 °F (Jul 19, 4:30 AM)38% (Jul 22, 4:00 PM)29.27 "Hg (Jul 26, 10:00 AM)
Average47 °F67%30.06 "Hg
* Reported Jul 15 3:00 AM — Jul 30 3:30 AM, Hobart, Weather by CustomWeather, © 2015

Note: Actual official high and low records may vary slightly from our data, if they occured in-between our weather recording intervals... More about our weather records

Advertising

Hobart weather history for previous 24 hours

 ConditionsComfort  
Time TempWeatherWind HumidityBarometerVisibility
3:30 AM
Thu, Jul 30
48 °FPassing clouds.9 mph66%30.01 "HgN/A
3:00 AM48 °FPassing clouds.9 mph66%30.01 "HgN/A
2:30 AM50 °FPassing clouds.8 mph62%30.01 "HgN/A
2:00 AM48 °FPassing clouds.10 mph71%30.04 "HgN/A
1:30 AM48 °FPassing clouds.12 mph76%30.04 "HgN/A
1:00 AM50 °FPassing clouds.13 mph71%30.07 "HgN/A
12:30 AM50 °FPassing clouds.14 mph71%30.07 "HgN/A
12:00 AM50 °FPassing clouds.14 mph71%30.07 "HgN/A
11:30 PM
Wed, Jul 29
50 °FPassing clouds.13 mph71%30.09 "HgN/A
11:00 PM50 °FPassing clouds.12 mph71%30.09 "HgN/A
10:30 PM50 °FPassing clouds.8 mph71%30.12 "HgN/A
10:00 PM50 °FOvercast.6 mph71%30.12 "HgN/A
9:30 PM50 °FOvercast.7 mph71%30.15 "HgN/A
9:00 PM50 °FOvercast.7 mph67%30.15 "HgN/A
8:30 PM48 °FClear.6 mph71%30.15 "Hg10 mi
8:00 PM50 °FClear.5 mph67%30.15 "Hg10 mi
7:30 PM50 °FOvercast.9 mph67%30.15 "HgN/A
7:00 PM50 °FOvercast.8 mph67%30.15 "HgN/A
6:30 PM54 °FOvercast.8 mph58%30.15 "HgN/A
6:00 PM52 °FOvercast.7 mph62%30.15 "HgN/A
5:30 PM54 °FOvercast.9 mph58%30.15 "HgN/A
5:00 PM54 °FOvercast.10 mph58%30.15 "HgN/A
4:30 PM54 °FOvercast.10 mph58%30.18 "HgN/A
4:00 PM55 °FOvercast.12 mph51%30.18 "HgN/A
3:30 PM55 °FOvercast.10 mph51%30.18 "HgN/A
3:00 PM55 °FPartly sunny.10 mph51%30.18 "HgN/A
2:30 PM55 °FPartly sunny.10 mph55%30.21 "HgN/A
1:30 PM55 °FPartly sunny.13 mph51%30.24 "HgN/A
1:00 PM55 °FPartly sunny.13 mph55%30.24 "HgN/A
12:30 PM55 °FPartly sunny.9 mph55%30.24 "HgN/A
12:00 PM55 °FPartly sunny.10 mph51%30.27 "HgN/A
11:30 AM55 °FScattered clouds.12 mph51%30.30 "HgN/A
11:00 AM54 °FPartly sunny.9 mph58%30.30 "HgN/A
10:30 AM54 °FScattered clouds.9 mph58%30.30 "HgN/A
10:00 AM52 °FScattered clouds.9 mph58%30.33 "HgN/A
9:30 AM50 °FScattered clouds.12 mph67%30.33 "HgN/A
9:00 AM46 °FPassing clouds.8 mph76%30.33 "HgN/A
8:30 AM45 °FScattered clouds.9 mph81%30.33 "HgN/A
8:00 AM45 °FPartly sunny.9 mph76%30.33 "HgN/A
7:30 AM45 °FPartly sunny.12 mph76%30.33 "HgN/A
7:00 AM45 °FPartly sunny.8 mph81%30.33 "HgN/A
6:30 AM45 °FPassing clouds.6 mph81%30.33 "HgN/A
6:00 AM46 °FPassing clouds.9 mph76%30.33 "HgN/A
5:30 AM46 °FPassing clouds.8 mph76%30.30 "HgN/A
5:00 AM46 °FPassing clouds.8 mph82%30.30 "HgN/A
4:30 AM46 °FPassing clouds.10 mph82%30.30 "HgN/A
4:00 AM48 °FPassing clouds.8 mph76%30.30 "HgN/A
Weather by CustomWeather, © 2015

See weather overviewHow to use our weather pages